DLH4KV EFHK-EDDF

Flight info

Callsign DLH4KV
Flight time 2h 17m
Altitude 36000
Route VALOX Y117 ROSAX DCT DEREX DCT GORPI DCT PESEL DCT KOSIX DCT NIMAB T171 MAIXE/N0430F300 T171 LASTO T178 ROBEL/N0390F240 T178 KERAX KERAX5D
Aircraft A21N/M-SDE2E3FGIJ1LORWXYZ/HB1

Departure

Time 2026-04-15 08:25
Airport Helsinki Vantaa Airport (EFHK)

Arrival

Time 2026-04-15 10:42
Airport Frankfurt Main Airport (EDDF)
Time Latitude Longitude Altitude Speed Heading
2026-04-15 07:55 60.31978 24.96901 185 ft 0 kts 217°
2026-04-15 08:14 60.31988 24.96917 184 ft 2 kts 217°
2026-04-15 08:14 60.32000 24.96938 183 ft 2 kts 242°
2026-04-15 08:14 60.32005 24.96966 183 ft 2 kts 268°
2026-04-15 08:15 60.32002 24.96996 183 ft 2 kts 296°
2026-04-15 08:15 60.31993 24.97020 184 ft 2 kts 324°
2026-04-15 08:15 60.31987 24.97027 184 ft 1 kts 337°
2026-04-15 08:15 60.31984 24.97030 184 ft 0 kts 333°
2026-04-15 08:17 60.31998 24.97016 183 ft 3 kts 333°
2026-04-15 08:18 60.32026 24.96987 182 ft 6 kts 332°
2026-04-15 08:18 60.32075 24.96933 180 ft 9 kts 330°
2026-04-15 08:18 60.32143 24.96853 178 ft 13 kts 330°
2026-04-15 08:18 60.32224 24.96760 177 ft 10 kts 329°
2026-04-15 08:19 60.32251 24.96678 178 ft 6 kts 251°
2026-04-15 08:19 60.32227 24.96616 181 ft 4 kts 226°
2026-04-15 08:19 60.32199 24.96555 182 ft 7 kts 227°
2026-04-15 08:19 60.32157 24.96464 184 ft 10 kts 227°
2026-04-15 08:20 60.32100 24.96338 185 ft 15 kts 227°
2026-04-15 08:20 60.32023 24.96168 184 ft 17 kts 228°
2026-04-15 08:20 60.31939 24.95981 180 ft 19 kts 227°
2026-04-15 08:20 60.31844 24.95772 177 ft 20 kts 227°
2026-04-15 08:21 60.31747 24.95560 177 ft 20 kts 227°
2026-04-15 08:21 60.31656 24.95361 180 ft 16 kts 228°
2026-04-15 08:21 60.31580 24.95190 180 ft 16 kts 227°
2026-04-15 08:21 60.31500 24.95015 177 ft 15 kts 227°
2026-04-15 08:22 60.31439 24.94880 172 ft 10 kts 227°
2026-04-15 08:22 60.31407 24.94779 168 ft 8 kts 263°
2026-04-15 08:22 60.31424 24.94682 167 ft 2 kts 314°
2026-04-15 08:22 60.31424 24.94681 167 ft 0 kts 314°
2026-04-15 08:23 60.31431 24.94666 167 ft 3 kts 315°
2026-04-15 08:23 60.31460 24.94608 168 ft 9 kts 316°
2026-04-15 08:23 60.31513 24.94553 171 ft 7 kts 358°
2026-04-15 08:24 60.31558 24.94587 172 ft 7 kts 37°
2026-04-15 08:24 60.31604 24.94683 174 ft 13 kts 47°
2026-04-15 08:24 60.31780 24.95068 182 ft 71 kts 47°
2026-04-15 08:24 60.32272 24.96149 193 ft 134 kts 47°
2026-04-15 08:25 60.33002 24.97780 356 ft 170 kts 49°
2026-04-15 08:25 60.33786 24.99546 1011 ft 171 kts 50°
2026-04-15 08:25 60.34578 25.01317 1796 ft 171 kts 50°
2026-04-15 08:25 60.35358 25.03010 2489 ft 166 kts 50°
2026-04-15 08:26 60.36139 25.04715 2997 ft 167 kts 50°
2026-04-15 08:26 60.36929 25.06452 3475 ft 170 kts 50°
2026-04-15 08:26 60.37753 25.08276 3783 ft 184 kts 50°
2026-04-15 08:26 60.38640 25.10259 4090 ft 199 kts 52°
2026-04-15 08:27 60.39255 25.12824 4367 ft 214 kts 81°
2026-04-15 08:27 60.39100 25.15951 4649 ft 235 kts 110°
2026-04-15 08:27 60.38375 25.18991 5021 ft 251 kts 115°
2026-04-15 08:27 60.37597 25.22233 5648 ft 258 kts 114°
2026-04-15 08:28 60.36836 25.25458 6393 ft 260 kts 114°
2026-04-15 08:28 60.36060 25.28767 7095 ft 264 kts 114°
2026-04-15 08:28 60.35273 25.32127 7833 ft 267 kts 114°
2026-04-15 08:28 60.34306 25.35314 8486 ft 273 kts 134°
2026-04-15 08:29 60.32698 25.37329 9150 ft 279 kts 161°
2026-04-15 08:29 60.30790 25.37764 9850 ft 282 kts 179°
2026-04-15 08:29 60.28824 25.37704 10556 ft 285 kts 179°
2026-04-15 08:29 60.26823 25.37660 11003 ft 296 kts 179°
2026-04-15 08:30 60.24731 25.37390 11376 ft 310 kts 192°
2026-04-15 08:30 60.22784 25.35463 11924 ft 316 kts 218°
2026-04-15 08:30 60.21334 25.32218 12619 ft 317 kts 230°
2026-04-15 08:30 60.19970 25.28703 13204 ft 320 kts 230°
2026-04-15 08:31 60.18602 25.25212 13824 ft 322 kts 230°
2026-04-15 08:31 60.17214 25.21697 14385 ft 325 kts 230°
2026-04-15 08:31 60.15792 25.18112 15045 ft 327 kts 229°
2026-04-15 08:31 60.14387 25.14582 15616 ft 329 kts 229°
2026-04-15 08:32 60.12947 25.10987 16165 ft 331 kts 229°
2026-04-15 08:32 60.11515 25.07415 16712 ft 333 kts 229°
2026-04-15 08:32 60.10069 25.03815 17261 ft 334 kts 229°
2026-04-15 08:32 60.08601 25.00171 17800 ft 336 kts 229°
2026-04-15 08:33 60.07130 24.96526 18370 ft 338 kts 229°
2026-04-15 08:33 60.05666 24.92905 18824 ft 341 kts 229°
2026-04-15 08:33 60.04174 24.89222 19278 ft 343 kts 229°
2026-04-15 08:33 60.02668 24.85512 19727 ft 346 kts 229°
2026-04-15 08:34 60.01159 24.81797 20149 ft 348 kts 229°
2026-04-15 08:34 59.99617 24.78007 20563 ft 350 kts 229°
2026-04-15 08:34 59.98086 24.74249 20998 ft 352 kts 229°
2026-04-15 08:34 59.96536 24.70448 21395 ft 354 kts 229°
2026-04-15 08:35 59.94984 24.66654 21782 ft 357 kts 230°
2026-04-15 08:35 59.93408 24.62803 22171 ft 359 kts 230°
2026-04-15 08:35 59.91847 24.58994 22545 ft 361 kts 230°
2026-04-15 08:35 59.90252 24.55112 22909 ft 363 kts 230°
2026-04-15 08:36 59.88646 24.51210 23252 ft 365 kts 231°
2026-04-15 08:36 59.87052 24.47337 23606 ft 368 kts 231°
2026-04-15 08:36 59.85421 24.43387 23957 ft 370 kts 231°
2026-04-15 08:36 59.83789 24.39436 24327 ft 372 kts 231°
2026-04-15 08:37 59.82143 24.35456 24690 ft 374 kts 231°
2026-04-15 08:37 59.80510 24.31515 25043 ft 376 kts 230°
2026-04-15 08:37 59.78836 24.27487 25392 ft 378 kts 230°
2026-04-15 08:37 59.77161 24.23465 25741 ft 380 kts 230°
2026-04-15 08:38 59.75500 24.19484 26079 ft 382 kts 229°
2026-04-15 08:38 59.73694 24.15562 26413 ft 383 kts 224°
2026-04-15 08:38 59.71726 24.12022 26739 ft 385 kts 219°
2026-04-15 08:38 59.69614 24.08847 27058 ft 386 kts 216°
2026-04-15 08:39 59.67416 24.05729 27381 ft 388 kts 215°
2026-04-15 08:39 59.65239 24.02661 27698 ft 389 kts 215°
2026-04-15 08:39 59.63031 23.99552 28012 ft 391 kts 215°
2026-04-15 08:39 59.60811 23.96429 28302 ft 393 kts 215°
2026-04-15 08:40 59.58593 23.93306 28577 ft 395 kts 215°
2026-04-15 08:40 59.56356 23.90161 28874 ft 396 kts 214°
2026-04-15 08:40 59.54118 23.87019 29174 ft 397 kts 214°
2026-04-15 08:40 59.51893 23.83900 29464 ft 398 kts 214°
2026-04-15 08:41 59.49681 23.80637 29750 ft 400 kts 218°
2026-04-15 08:41 59.47546 23.77097 30039 ft 402 kts 220°
2026-04-15 08:41 59.45513 23.73314 30319 ft 403 kts 224°
2026-04-15 08:41 59.43603 23.69335 30596 ft 405 kts 226°
2026-04-15 08:42 59.41706 23.65286 30857 ft 406 kts 226°
2026-04-15 08:42 59.39777 23.61180 31099 ft 408 kts 225°
2026-04-15 08:42 59.37866 23.57122 31333 ft 409 kts 225°
2026-04-15 08:42 59.35926 23.53009 31556 ft 411 kts 225°
2026-04-15 08:43 59.34016 23.48968 31776 ft 412 kts 225°
2026-04-15 08:43 59.32063 23.44838 31996 ft 414 kts 225°
2026-04-15 08:43 59.30101 23.40699 32219 ft 415 kts 225°
2026-04-15 08:43 59.28157 23.36608 32429 ft 416 kts 225°
2026-04-15 08:44 59.26182 23.32455 32656 ft 417 kts 224°
2026-04-15 08:44 59.24204 23.28308 32930 ft 417 kts 224°
2026-04-15 08:44 59.22256 23.24225 33223 ft 416 kts 224°
2026-04-15 08:44 59.20284 23.20100 33514 ft 414 kts 224°
2026-04-15 08:45 59.18340 23.16043 33780 ft 414 kts 224°
2026-04-15 08:45 59.16370 23.11936 34031 ft 414 kts 224°
2026-04-15 08:45 59.14431 23.07902 34270 ft 413 kts 224°
2026-04-15 08:45 59.12479 23.03847 34495 ft 412 kts 224°
2026-04-15 08:46 59.10507 22.99763 34695 ft 412 kts 224°
2026-04-15 08:46 59.08552 22.95720 34828 ft 413 kts 224°
2026-04-15 08:46 59.06593 22.91676 34936 ft 415 kts 224°
2026-04-15 08:46 59.04614 22.87598 35052 ft 417 kts 224°
2026-04-15 08:47 59.02645 22.83548 35147 ft 418 kts 224°
2026-04-15 08:47 59.00645 22.79442 35266 ft 419 kts 224°
2026-04-15 08:47 58.98642 22.75338 35375 ft 421 kts 224°
2026-04-15 08:48 58.94615 22.67106 35579 ft 423 kts 224°
2026-04-15 08:48 58.92615 22.63028 35684 ft 424 kts 224°
2026-04-15 08:48 58.90590 22.58905 35800 ft 424 kts 225°
2026-04-15 08:48 58.88543 22.54746 35907 ft 425 kts 225°
2026-04-15 08:49 58.86524 22.50652 36009 ft 426 kts 225°
2026-04-15 08:49 58.82441 22.42391 36198 ft 428 kts 225°
2026-04-15 08:50 58.78342 22.34131 36281 ft 430 kts 224°
2026-04-15 08:50 58.74211 22.25837 36287 ft 431 kts 224°
2026-04-15 08:51 58.70073 22.17557 36281 ft 431 kts 224°
2026-04-15 08:51 58.65922 22.09284 36293 ft 432 kts 224°
2026-04-15 08:52 58.61759 22.01017 36290 ft 432 kts 224°
2026-04-15 08:52 58.57587 21.92761 36282 ft 432 kts 224°
2026-04-15 08:53 58.53412 21.84530 36261 ft 433 kts 224°
2026-04-15 08:53 58.49234 21.76322 36272 ft 433 kts 224°
2026-04-15 08:54 58.45041 21.68115 36267 ft 433 kts 224°
2026-04-15 08:54 58.40828 21.59902 36261 ft 433 kts 224°
2026-04-15 08:55 58.36655 21.51796 36264 ft 433 kts 224°
2026-04-15 08:55 58.32424 21.43606 36262 ft 433 kts 224°
2026-04-15 08:56 58.28233 21.35521 36263 ft 434 kts 224°
2026-04-15 08:56 58.23988 21.27362 36259 ft 434 kts 224°
2026-04-15 08:57 58.19741 21.19226 36263 ft 435 kts 224°
2026-04-15 08:57 58.15509 21.11152 36256 ft 434 kts 224°
2026-04-15 08:58 58.11263 21.03080 36259 ft 434 kts 224°
2026-04-15 08:58 58.04899 20.91034 36248 ft 433 kts 224°
2026-04-15 08:59 58.00645 20.83014 36241 ft 434 kts 224°
2026-04-15 08:59 57.96399 20.75044 36245 ft 435 kts 224°
2026-04-15 09:00 57.92108 20.67015 36241 ft 436 kts 224°
2026-04-15 09:00 57.87823 20.59026 36235 ft 437 kts 224°
2026-04-15 09:01 57.83535 20.51056 36234 ft 437 kts 224°
2026-04-15 09:01 57.79209 20.43044 36235 ft 437 kts 224°
2026-04-15 09:02 57.74902 20.35100 36227 ft 436 kts 224°
2026-04-15 09:02 57.70582 20.27159 36224 ft 436 kts 223°
2026-04-15 09:03 57.66278 20.19275 36222 ft 436 kts 223°
2026-04-15 09:03 57.61957 20.11376 36222 ft 436 kts 223°
2026-04-15 09:04 57.57650 20.03526 36222 ft 436 kts 223°
2026-04-15 09:04 57.53309 19.95640 36217 ft 436 kts 223°
2026-04-15 09:05 57.48994 19.87829 36214 ft 437 kts 223°
2026-04-15 09:05 57.44630 19.79959 36209 ft 437 kts 223°
2026-04-15 09:06 57.40289 19.72156 36199 ft 437 kts 223°
2026-04-15 09:06 57.35943 19.64371 36192 ft 437 kts 224°
2026-04-15 09:07 57.31558 19.56543 36189 ft 438 kts 224°
2026-04-15 09:07 57.27180 19.48756 36183 ft 439 kts 224°
2026-04-15 09:08 57.22791 19.40976 36170 ft 439 kts 224°
2026-04-15 09:08 57.18405 19.33229 36179 ft 440 kts 223°
2026-04-15 09:09 57.14006 19.25484 36168 ft 440 kts 223°
2026-04-15 09:09 57.09585 19.17726 36163 ft 442 kts 223°
2026-04-15 09:10 57.05146 19.09965 36162 ft 442 kts 223°
2026-04-15 09:10 57.00674 19.02178 36160 ft 443 kts 223°
2026-04-15 09:11 56.96232 18.94466 36162 ft 443 kts 223°
2026-04-15 09:11 56.91768 18.86743 36167 ft 442 kts 223°
2026-04-15 09:12 56.87307 18.79052 36162 ft 442 kts 224°
2026-04-15 09:12 56.82854 18.71402 36174 ft 441 kts 224°
2026-04-15 09:13 56.78384 18.63744 36170 ft 442 kts 224°
2026-04-15 09:13 56.73909 18.56106 36177 ft 442 kts 224°
2026-04-15 09:14 56.69454 18.48531 36167 ft 441 kts 224°
2026-04-15 09:14 56.64956 18.40909 36183 ft 441 kts 224°
2026-04-15 09:15 56.60469 18.33329 36182 ft 441 kts 223°
2026-04-15 09:15 56.55999 18.25805 36176 ft 441 kts 223°
2026-04-15 09:16 56.51503 18.18262 36176 ft 441 kts 223°
2026-04-15 09:16 56.47024 18.10773 36174 ft 440 kts 223°
2026-04-15 09:17 56.42525 18.03275 36170 ft 441 kts 223°
2026-04-15 09:17 56.38030 17.95810 36169 ft 441 kts 224°
2026-04-15 09:18 56.33523 17.88350 36182 ft 441 kts 224°
2026-04-15 09:18 56.29033 17.80941 36191 ft 441 kts 224°
2026-04-15 09:19 56.24529 17.73538 36186 ft 441 kts 224°
2026-04-15 09:19 56.20007 17.66126 36183 ft 441 kts 224°
2026-04-15 09:20 56.15477 17.58728 36197 ft 442 kts 224°
2026-04-15 09:20 56.10963 17.51382 36192 ft 441 kts 224°
2026-04-15 09:21 56.06428 17.44023 36187 ft 441 kts 224°
2026-04-15 09:21 56.01876 17.36664 36206 ft 441 kts 225°
2026-04-15 09:22 55.97343 17.29354 36194 ft 442 kts 224°
2026-04-15 09:22 55.92781 17.22024 36198 ft 443 kts 224°
2026-04-15 09:23 55.88217 17.14718 36200 ft 442 kts 224°
2026-04-15 09:23 55.83637 17.07406 36190 ft 443 kts 224°
2026-04-15 09:24 55.79062 17.00132 36210 ft 444 kts 224°
2026-04-15 09:24 55.74495 16.92891 36217 ft 444 kts 224°
2026-04-15 09:25 55.69908 16.85642 36213 ft 443 kts 225°
2026-04-15 09:25 55.65308 16.78396 36215 ft 443 kts 225°
2026-04-15 09:26 55.60723 16.71201 36222 ft 443 kts 225°
2026-04-15 09:26 55.56140 16.64028 36234 ft 443 kts 225°
2026-04-15 09:27 55.51511 16.56808 36226 ft 443 kts 225°
2026-04-15 09:27 55.46911 16.49658 36228 ft 443 kts 225°
2026-04-15 09:28 55.42310 16.42526 36231 ft 443 kts 225°
2026-04-15 09:28 55.37694 16.35398 36233 ft 442 kts 225°
2026-04-15 09:29 55.33083 16.28297 36230 ft 443 kts 224°
2026-04-15 09:29 55.28455 16.21189 36225 ft 443 kts 224°
2026-04-15 09:30 55.23805 16.14082 36254 ft 443 kts 225°
2026-04-15 09:30 55.19169 16.07011 36236 ft 443 kts 225°
2026-04-15 09:31 55.14532 15.99961 36233 ft 443 kts 225°
2026-04-15 09:31 55.09912 15.92960 36248 ft 443 kts 225°
2026-04-15 09:32 55.05268 15.85947 36251 ft 442 kts 225°
2026-04-15 09:32 55.00620 15.78943 36234 ft 442 kts 225°
2026-04-15 09:33 54.96003 15.72017 36241 ft 442 kts 225°
2026-04-15 09:33 54.91128 15.65449 36243 ft 447 kts 219°
2026-04-15 09:34 54.85809 15.59800 36245 ft 450 kts 214°
2026-04-15 09:34 54.80365 15.54499 36255 ft 451 kts 214°
2026-04-15 09:35 54.74913 15.49186 36257 ft 451 kts 214°
2026-04-15 09:35 54.69442 15.43875 36251 ft 452 kts 214°
2026-04-15 09:36 54.63987 15.38598 36274 ft 451 kts 215°
2026-04-15 09:36 54.58520 15.33324 36275 ft 452 kts 214°
2026-04-15 09:37 54.53036 15.28049 36276 ft 453 kts 214°
2026-04-15 09:37 54.47545 15.22787 36280 ft 453 kts 214°
2026-04-15 09:38 54.42045 15.17527 36274 ft 454 kts 214°
2026-04-15 09:38 54.36540 15.12287 36275 ft 454 kts 214°
2026-04-15 09:39 54.31038 15.07059 36293 ft 454 kts 215°
2026-04-15 09:39 54.25546 15.01858 36280 ft 455 kts 215°
2026-04-15 09:40 54.19974 14.96597 36292 ft 456 kts 215°
2026-04-15 09:40 54.14431 14.91380 36267 ft 458 kts 215°
2026-04-15 09:41 54.11681 14.88800 36109 ft 458 kts 215°
2026-04-15 09:41 54.08891 14.86183 36203 ft 458 kts 215°
2026-04-15 09:41 54.03293 14.80947 36277 ft 459 kts 215°
2026-04-15 09:42 53.97708 14.75739 36273 ft 460 kts 215°
2026-04-15 09:42 53.92129 14.70555 36267 ft 460 kts 215°
2026-04-15 09:43 53.86502 14.65340 36255 ft 461 kts 215°
2026-04-15 09:43 53.80900 14.60166 36289 ft 461 kts 215°
2026-04-15 09:44 53.75301 14.55005 36269 ft 461 kts 215°
2026-04-15 09:44 53.69662 14.49830 36275 ft 462 kts 215°
2026-04-15 09:45 53.64041 14.44683 36284 ft 463 kts 215°
2026-04-15 09:45 53.58382 14.39519 36276 ft 463 kts 215°
2026-04-15 09:46 53.52761 14.34369 36272 ft 463 kts 216°
2026-04-15 09:46 53.47431 14.28575 36274 ft 456 kts 222°
2026-04-15 09:47 53.42288 14.22316 36281 ft 459 kts 222°
2026-04-15 09:47 53.37135 14.16078 36265 ft 460 kts 222°
2026-04-15 09:48 53.31958 14.09842 36267 ft 460 kts 222°
2026-04-15 09:48 53.26782 14.03618 36260 ft 460 kts 222°
2026-04-15 09:49 53.21561 13.97362 36267 ft 461 kts 222°
2026-04-15 09:49 53.16377 13.91167 36257 ft 461 kts 222°
2026-04-15 09:50 53.11164 13.84959 36273 ft 462 kts 222°
2026-04-15 09:50 53.05932 13.78745 36264 ft 462 kts 222°
2026-04-15 09:51 53.00729 13.72585 36266 ft 463 kts 222°
2026-04-15 09:51 52.95482 13.66392 36266 ft 463 kts 222°
2026-04-15 09:52 52.90222 13.60200 36264 ft 465 kts 222°
2026-04-15 09:52 52.84951 13.54016 36267 ft 465 kts 222°
2026-04-15 09:53 52.79695 13.47869 36264 ft 466 kts 222°
2026-04-15 09:53 52.74367 13.41658 36274 ft 467 kts 222°
2026-04-15 09:54 52.69078 13.35510 36272 ft 466 kts 222°
2026-04-15 09:54 52.63790 13.29378 36259 ft 468 kts 221°
2026-04-15 09:55 52.58480 13.23243 36267 ft 469 kts 221°
2026-04-15 09:55 52.53153 13.17105 36272 ft 470 kts 221°
2026-04-15 09:56 52.47776 13.10932 36266 ft 470 kts 221°
2026-04-15 09:57 52.39765 13.01766 36270 ft 471 kts 221°
2026-04-15 09:57 52.34374 12.95619 36264 ft 472 kts 221°
2026-04-15 09:58 52.29007 12.89520 36261 ft 472 kts 221°
2026-04-15 09:58 52.23607 12.83401 36261 ft 473 kts 221°
2026-04-15 09:59 52.18232 12.77326 36259 ft 473 kts 221°
2026-04-15 09:59 52.12844 12.71261 36252 ft 473 kts 221°
2026-04-15 10:00 52.07435 12.65184 36255 ft 474 kts 221°
2026-04-15 10:00 52.02022 12.59125 36259 ft 474 kts 221°
2026-04-15 10:01 51.96573 12.53040 36249 ft 475 kts 221°
2026-04-15 10:01 51.91142 12.46907 36249 ft 474 kts 223°
2026-04-15 10:02 51.86172 12.40190 36253 ft 469 kts 229°
2026-04-15 10:02 51.81356 12.33097 36266 ft 469 kts 228°
2026-04-15 10:03 51.76516 12.26002 36270 ft 470 kts 228°
2026-04-15 10:03 51.71690 12.18962 36271 ft 470 kts 229°
2026-04-15 10:04 51.66876 12.11919 36262 ft 468 kts 230°
2026-04-15 10:04 51.62461 12.04387 36258 ft 461 kts 237°
2026-04-15 10:05 51.58640 11.96123 36265 ft 456 kts 244°
2026-04-15 10:05 51.55217 11.87642 36267 ft 456 kts 244°
2026-04-15 10:06 51.51763 11.79124 36263 ft 455 kts 244°
2026-04-15 10:06 51.48307 11.70649 36260 ft 456 kts 244°
2026-04-15 10:07 51.44828 11.62158 36256 ft 456 kts 244°
2026-04-15 10:07 51.41331 11.53772 36247 ft 457 kts 242°
2026-04-15 10:08 51.37307 11.45780 36247 ft 465 kts 235°
2026-04-15 10:08 51.32692 11.38565 36243 ft 471 kts 228°
2026-04-15 10:09 51.27732 11.31671 36247 ft 472 kts 227°
2026-04-15 10:09 51.22803 11.24819 36243 ft 472 kts 227°
2026-04-15 10:10 51.17956 11.17911 36240 ft 468 kts 230°
2026-04-15 10:10 51.13602 11.10349 36245 ft 462 kts 238°
2026-04-15 10:11 51.09913 11.02133 36251 ft 455 kts 245°
2026-04-15 10:11 51.06831 10.93407 36256 ft 452 kts 249°
2026-04-15 10:12 51.03862 10.84589 36255 ft 453 kts 249°
2026-04-15 10:12 51.00892 10.75871 36256 ft 452 kts 248°
2026-04-15 10:13 50.97900 10.67151 36246 ft 452 kts 248°
2026-04-15 10:13 50.94896 10.58430 36239 ft 452 kts 248°
2026-04-15 10:14 50.91394 10.50059 36232 ft 463 kts 236°
2026-04-15 10:14 50.86678 10.43035 36227 ft 474 kts 222°
2026-04-15 10:15 50.80928 10.37848 36225 ft 484 kts 208°
2026-04-15 10:15 50.74681 10.33896 36223 ft 485 kts 206°
2026-04-15 10:16 50.68745 10.28921 36212 ft 477 kts 220°
2026-04-15 10:16 50.63901 10.22023 36206 ft 466 kts 235°
2026-04-15 10:17 50.60323 10.13792 36202 ft 455 kts 248°
2026-04-15 10:17 50.58830 10.09422 36010 ft 454 kts 249°
2026-04-15 10:17 50.57348 10.05024 35772 ft 451 kts 249°
2026-04-15 10:17 50.55915 10.00658 35534 ft 448 kts 251°
2026-04-15 10:18 50.54647 9.96298 35299 ft 442 kts 254°
2026-04-15 10:18 50.53528 9.91821 35059 ft 436 kts 257°
2026-04-15 10:18 50.52585 9.87318 34790 ft 431 kts 260°
2026-04-15 10:18 50.51776 9.82857 34329 ft 428 kts 261°
2026-04-15 10:19 50.50979 9.78345 33574 ft 430 kts 261°
2026-04-15 10:19 50.50182 9.73843 32770 ft 433 kts 261°
2026-04-15 10:19 50.49395 9.69294 32118 ft 432 kts 261°
2026-04-15 10:19 50.48627 9.64823 31544 ft 429 kts 260°
2026-04-15 10:20 50.47851 9.60295 30799 ft 431 kts 260°
2026-04-15 10:20 50.47058 9.55785 30182 ft 429 kts 259°
2026-04-15 10:20 50.46233 9.51382 29646 ft 425 kts 258°
2026-04-15 10:20 50.45386 9.46949 29101 ft 422 kts 258°
2026-04-15 10:21 50.44550 9.42576 28558 ft 418 kts 258°
2026-04-15 10:21 50.43725 9.38251 28016 ft 415 kts 257°
2026-04-15 10:21 50.42899 9.33917 27482 ft 411 kts 257°
2026-04-15 10:21 50.42062 9.29679 26947 ft 409 kts 253°
2026-04-15 10:22 50.40726 9.25783 26355 ft 414 kts 236°
2026-04-15 10:22 50.38717 9.22545 25829 ft 416 kts 220°
2026-04-15 10:22 50.36321 9.20072 25375 ft 413 kts 214°
2026-04-15 10:22 50.33866 9.17751 24892 ft 409 kts 213°
2026-04-15 10:23 50.31456 9.15473 24398 ft 406 kts 213°
2026-04-15 10:23 50.29098 9.13081 23902 ft 401 kts 220°
2026-04-15 10:23 50.27193 9.10004 23390 ft 393 kts 236°
2026-04-15 10:23 50.25889 9.06340 22908 ft 386 kts 249°
2026-04-15 10:24 50.24967 9.02481 22432 ft 382 kts 252°
2026-04-15 10:24 50.24081 8.98587 21924 ft 380 kts 252°
2026-04-15 10:24 50.23205 8.94740 21433 ft 377 kts 252°
2026-04-15 10:24 50.22318 8.90892 20948 ft 374 kts 251°
2026-04-15 10:25 50.21442 8.87121 20469 ft 371 kts 251°
2026-04-15 10:25 50.20557 8.83340 19982 ft 369 kts 251°
2026-04-15 10:25 50.19684 8.79629 19501 ft 367 kts 251°
2026-04-15 10:25 50.18809 8.75919 19020 ft 364 kts 251°
2026-04-15 10:26 50.17939 8.72239 18553 ft 362 kts 251°
2026-04-15 10:26 50.17067 8.68553 18087 ft 359 kts 251°
2026-04-15 10:26 50.16201 8.64903 17633 ft 357 kts 250°
2026-04-15 10:26 50.15346 8.61309 17186 ft 354 kts 250°
2026-04-15 10:27 50.14501 8.57766 16742 ft 351 kts 251°
2026-04-15 10:27 50.13654 8.54212 16303 ft 348 kts 251°
2026-04-15 10:27 50.12806 8.50668 15847 ft 346 kts 251°
2026-04-15 10:27 50.11977 8.47201 15400 ft 343 kts 250°
2026-04-15 10:28 50.11137 8.43697 14956 ft 341 kts 250°
2026-04-15 10:28 50.10315 8.40283 14510 ft 338 kts 250°
2026-04-15 10:28 50.09484 8.36843 14051 ft 336 kts 250°
2026-04-15 10:28 50.08666 8.33464 13606 ft 334 kts 249°
2026-04-15 10:29 50.07850 8.30103 13171 ft 331 kts 249°
2026-04-15 10:29 50.07046 8.26796 12719 ft 329 kts 249°
2026-04-15 10:29 50.06237 8.23469 12261 ft 327 kts 249°
2026-04-15 10:29 50.05434 8.20173 11784 ft 326 kts 249°
2026-04-15 10:30 50.04642 8.16928 11313 ft 324 kts 249°
2026-04-15 10:30 50.03846 8.13666 10834 ft 323 kts 249°
2026-04-15 10:30 50.03047 8.10398 10362 ft 322 kts 249°
2026-04-15 10:30 50.02262 8.07181 9877 ft 321 kts 249°
2026-04-15 10:31 50.01467 8.03924 9401 ft 320 kts 249°
2026-04-15 10:31 50.00680 8.00700 8972 ft 318 kts 249°
2026-04-15 10:31 49.99903 7.97527 8567 ft 315 kts 249°
2026-04-15 10:31 49.99142 7.94417 8323 ft 302 kts 249°
2026-04-15 10:32 49.98410 7.91432 8081 ft 288 kts 248°
2026-04-15 10:32 49.97649 7.88648 7837 ft 274 kts 237°
2026-04-15 10:32 49.96375 7.86615 7578 ft 259 kts 209°
2026-04-15 10:32 49.94700 7.85796 7175 ft 252 kts 181°
2026-04-15 10:33 49.93033 7.86334 6839 ft 243 kts 153°
2026-04-15 10:33 49.91755 7.87942 6572 ft 235 kts 126°
2026-04-15 10:33 49.91112 7.90202 6318 ft 234 kts 100°
2026-04-15 10:33 49.91184 7.92740 6069 ft 235 kts 79°
2026-04-15 10:34 49.91559 7.95190 5868 ft 235 kts 78°
2026-04-15 10:34 49.91938 7.97644 5660 ft 234 kts 78°
2026-04-15 10:34 49.92310 8.00082 5406 ft 233 kts 78°
2026-04-15 10:34 49.92679 8.02537 5154 ft 231 kts 78°
2026-04-15 10:35 49.93034 8.04928 4964 ft 229 kts 78°
2026-04-15 10:35 49.93469 8.07326 4957 ft 230 kts 71°
2026-04-15 10:35 49.94077 8.09624 4959 ft 230 kts 68°
2026-04-15 10:35 49.94686 8.11833 4970 ft 214 kts 69°
2026-04-15 10:36 49.95223 8.13884 5077 ft 196 kts 70°
2026-04-15 10:36 49.95701 8.15805 5043 ft 190 kts 71°
2026-04-15 10:36 49.96161 8.17726 4833 ft 189 kts 71°
2026-04-15 10:36 49.96610 8.19638 4567 ft 187 kts 71°
2026-04-15 10:37 49.97047 8.21516 4309 ft 186 kts 71°
2026-04-15 10:37 49.97484 8.23398 4044 ft 185 kts 71°
2026-04-15 10:37 49.97918 8.25264 3784 ft 183 kts 71°
2026-04-15 10:37 49.98346 8.27097 3527 ft 181 kts 71°
2026-04-15 10:38 49.98779 8.28946 3271 ft 180 kts 71°
2026-04-15 10:38 49.99205 8.30755 3005 ft 172 kts 71°
2026-04-15 10:38 49.99601 8.32435 2788 ft 161 kts 71°
2026-04-15 10:38 49.99985 8.34057 2564 ft 159 kts 71°
2026-04-15 10:39 50.00348 8.35590 2331 ft 146 kts 71°
2026-04-15 10:39 50.00695 8.37055 2125 ft 143 kts 71°
2026-04-15 10:39 50.01036 8.38493 1934 ft 142 kts 71°
2026-04-15 10:39 50.01380 8.39940 1739 ft 142 kts 71°
2026-04-15 10:40 50.01718 8.41363 1542 ft 142 kts 70°
2026-04-15 10:40 50.02064 8.42797 1332 ft 141 kts 70°
2026-04-15 10:40 50.02410 8.44219 1125 ft 141 kts 70°
2026-04-15 10:40 50.02755 8.45641 938 ft 140 kts 70°
2026-04-15 10:41 50.03088 8.47068 752 ft 140 kts 71°
2026-04-15 10:41 50.03416 8.48488 548 ft 139 kts 70°
2026-04-15 10:41 50.03753 8.49896 362 ft 138 kts 70°
2026-04-15 10:41 50.04054 8.51170 361 ft 104 kts 69°
2026-04-15 10:42 50.04248 8.51975 358 ft 61 kts 69°
2026-04-15 10:42 50.04363 8.52468 365 ft 35 kts 70°
2026-04-15 10:42 50.04395 8.52719 364 ft 20 kts 90°
2026-04-15 10:42 50.04378 8.52953 356 ft 19 kts 99°
2026-04-15 10:43 50.04360 8.53113 352 ft 14 kts 99°
2026-04-15 10:43 50.04348 8.53248 351 ft 12 kts 88°
2026-04-15 10:43 50.04370 8.53386 351 ft 13 kts 71°
2026-04-15 10:43 50.04395 8.53525 351 ft 13 kts 80°
2026-04-15 10:44 50.04407 8.53672 352 ft 15 kts 83°
2026-04-15 10:44 50.04419 8.53855 353 ft 17 kts 84°
2026-04-15 10:44 50.04430 8.54035 354 ft 16 kts 84°
2026-04-15 10:44 50.04441 8.54209 354 ft 16 kts 84°
2026-04-15 10:45 50.04453 8.54384 354 ft 16 kts 84°
2026-04-15 10:45 50.04438 8.54562 353 ft 16 kts 110°
2026-04-15 10:45 50.04370 8.54711 352 ft 17 kts 138°
2026-04-15 10:45 50.04263 8.54801 351 ft 17 kts 160°
2026-04-15 10:46 50.04150 8.54864 351 ft 17 kts 159°
2026-04-15 10:46 50.04048 8.54923 348 ft 10 kts 159°
2026-04-15 10:46 50.04019 8.55019 349 ft 12 kts 72°
2026-04-15 10:46 50.04046 8.55131 352 ft 9 kts 69°
2026-04-15 10:47 50.04068 8.55225 353 ft 10 kts 69°
2026-04-15 10:47 50.04098 8.55349 355 ft 14 kts 68°
2026-04-15 10:47 50.04137 8.55514 356 ft 18 kts 69°
2026-04-15 10:47 50.04186 8.55719 355 ft 21 kts 69°
2026-04-15 10:48 50.04239 8.55936 357 ft 22 kts 69°
2026-04-15 10:48 50.04293 8.56165 360 ft 22 kts 68°
2026-04-15 10:48 50.04347 8.56390 362 ft 21 kts 70°
2026-04-15 10:48 50.04397 8.56598 365 ft 19 kts 69°
2026-04-15 10:49 50.04440 8.56777 368 ft 15 kts 69°
2026-04-15 10:49 50.04474 8.56862 370 ft 7 kts 20°
2026-04-15 10:49 50.04522 8.56881 371 ft 6 kts 13°
2026-04-15 10:49 50.04564 8.56896 372 ft 5 kts 12°
2026-04-15 10:50 50.04596 8.56908 372 ft 3 kts 13°
2026-04-15 10:50 50.04618 8.56913 373 ft 2 kts 349°
2026-04-15 10:50 50.04630 8.56893 373 ft 3 kts 298°
2026-04-15 10:50 50.04644 8.56850 373 ft 4 kts 295°
2026-04-15 10:51 50.04653 8.56818 373 ft 0 kts 294°